Regional Weather Roundup
Issued by NWS

Home | Current Version | Previous Version | Text Only | Print | Product List | Glossary On
Versions: 1 2 3 4 5 6 7 8 9 10 11 12 13 14 15 16 17 18 19 20 21 22 23 24 25 26 27 28 29 30 31 32 33 34 35 36 37 38 39 40 41 42 43 44 45 46 47 48 49 50
000
ASUS43 KMKX 240421
RWRWI

WISCONSIN REGIONAL WEATHER ROUNDUP
NATIONAL WEATHER SERVICE MILWAUKEE/SULLIVAN WI
1100 PM CDT WED APR 23 2014

NOTE: "FAIR" INDICATES FEW OR NO CLOUDS BELOW 12,000 FEET WITH NO
SIGNIFICANT WEATHER AND/OR OBSTRUCTIONS TO VISIBILITY.

WIZ001-002-006>008-014>016-023>028-240500-
NORTHWEST WISCONSIN

CITY           SKY/WX    TMP DP  RH WIND       PRES   REMARKS
SUPERIOR ARPT  DRIZZLE   34  33  94 NE7       30.04F WCI  28
ASHLAND        MIX PCPN  35  30  82 VRB5      30.05R WCI  31
HAYWARD        LGT RAIN  41  34  76 S7G17     30.02S
SIREN          LGT RAIN  40  38  93 SE7       30.00F WCI  35
RICE LAKE      LGT RAIN  39  36  90 E9        30.02F WCI  32
LADYSMITH      DRIZZLE   46  31  56 S10       30.04F
EAU CLAIRE     LGT RAIN  42  39  89 E14       29.99F
MENOMONIE      CLOUDY    42  40  94 E9        29.99F
NEW RICHMOND   CLOUDY    41  38  89 E13G18    29.97R
OSCEOLA        CLOUDY    41  40  96 E12       29.99S
$$

WIZ003>005-009-010-017-018-240500-
NORTH CENTRAL WISCONSIN

CITY           SKY/WX    TMP DP  RH WIND       PRES   REMARKS
WOODRUFF       CLOUDY    44  19  36 S6        30.05S
RHINELANDER    CLOUDY    42  14  32 SE8       30.07R
EAGLE RIVER    CLOUDY    42  10  27 S5        30.06R
LAND O LAKES   CLOUDY    43  15  31 S7        30.06S
PHILLIPS       LGT RAIN  44  28  54 S14       30.04R
TOMAHAWK       CLOUDY    42  17  36 SE5       30.06S
MEDFORD        CLOUDY    43  27  52 SE6       30.03F
MERRILL        CLOUDY    43  23  44 SE12      30.07S
$$

WIZ029-030-035-036-043>047-240500-
CENTRAL WISCONSIN

CITY           SKY/WX    TMP DP  RH WIND       PRES   REMARKS
WAUSAU         CLOUDY    44  26  49 E10       30.06R
MOSINEE        CLOUDY    43  28  56 E12       30.07S
MARSHFIELD     LGT RAIN  42  33  70 SE9       30.04R
STEVENS POINT  CLOUDY    42  23  47 E6        30.07S
WAUPACA        CLOUDY    45  21  39 E6        30.09R
WAUTOMA        CLOUDY    44  27  51 E8        30.08R
WISC RAPIDS    LGT RAIN  41  33  73 E8        30.06S
CAMP DOUGLAS   DRIZZLE   41  41 100 E12       30.03F
$$

WIZ011>013-019>022-031-037>040-048>050-240500-
NORTHEAST WISCONSIN

CITY           SKY/WX    TMP DP  RH WIND       PRES   REMARKS
ANTIGO         CLOUDY    39  20  46 SE8       30.09R WCI  34
STURGEON BAY   CLOUDY    39  12  33 E6        30.11S WCI  35
GREEN BAY      CLOUDY    41  15  35 CALM      30.10S
MANITOWOC      CLOUDY    39  14  36 CALM      30.10F
APPLETON       MOCLDY    43   3  19 E7        30.09R
CLINTONVILLE   CLOUDY    41  10  28 SE3       30.11R
OSHKOSH        CLOUDY    42   9  25 SE7       30.08R
$$

WIZ032>034-041-042-053>061-240500-
SOUTHWEST WISCONSIN

CITY           SKY/WX    TMP DP  RH WIND       PRES   REMARKS
LA CROSSE      CLOUDY    45  39  79 SE10      29.98S
SPARTA         LGT RAIN  43  39  88 E8        30.01F
VIROQUA        CLOUDY    42  38  84 SE12      29.98R
BOSCOBEL       CLOUDY    48  33  56 E10       30.00S
PRAIRIE DU CHI CLOUDY    47  36  67 E12       29.96F
PLATTEVILLE    CLOUDY    44  37  75 E12       30.00R
$$

WIZ056-057-062-063-064-067-068-240500-
SOUTH CENTRAL WISCONSIN

CITY           SKY/WX    TMP DP  RH WIND       PRES   REMARKS
BARABOO/DELLS  LGT RAIN  39  34  83 E9        30.03F WCI  33
LONE ROCK      LGT RAIN  43  37  79 E14       30.02S
WATERTOWN      CLOUDY    40  22  47 E9        30.06S WCI  34
MADISON        LGT RAIN  40  32  73 E9        30.05R WCI  34
MIDDLETON      CLOUDY    42  34  74 E9        30.03F
MONROE         CLOUDY    41  39  91 E8        30.02R
JANESVILLE     RAIN      41  32  70 E7        30.03S
$$

WIZ051-052-058>065-066-070>072-240500-
SOUTHEAST WISCONSIN

CITY           SKY/WX    TMP DP  RH WIND       PRES   REMARKS
MILWAUKEE      CLOUDY    38  20  48 E6        30.08F WCI  33
WAUKESHA       CLOUDY    37  12  35 E7        30.07F WCI  32
MILWAUKEE/TIMM CLOUDY    37  10  32 NE7       30.08F WCI  32
RACINE         CLOUDY    38  21  50 E7        30.09F WCI  33
BURLINGTON     CLOUDY    38  20  48 E10       30.05F WCI  31
KENOSHA        CLOUDY    38  22  52 E10       30.06F WCI  31
FOND DU LAC    CLOUDY    42   4  20 E8        30.08S
SHEBOYGAN      CLOUDY    38  17  42 CALM      30.09S
WEST BEND      CLOUDY    36  10  35 E8        30.07F WCI  29
JUNEAU         CLOUDY    41  10  28 E7        30.09R
$$

LSZ147-162-240500-
LAKE SUPERIOR

STATION/POSITION TIME  TEMP    WIND        PRES    WAVE
                       AIR SEA DIR/SP/G            HT/PER
                 (UTC) (F)     (DEG/KT/KT) (MB)    (FT/S)
DEVILS ISLAND    0400   40     140/ 10/ 12 1017.8S
PORT WING        0300   34     340/  1/  3 1017.3R
SAXON HARBOR     0340             CALM     1016.9R
$$

LMZ867-665-643>646-240500-
LAKE MICHIGAN

STATION/POSITION TIME  TEMP    WIND        PRES    WAVE
                       AIR SEA DIR/SP/G            HT/PER
                 (UTC) (F)     (DEG/KT/KT) (MB)    (FT/S)
NORTHPORT PIER   0300   39     200/  1/  5 1020.0F
SISTER BAY       0338   37        CALM       N/A
KEWAUNEE LAKESHO 0400   40      40/  5/  8 1019.9R
SHEBOYGAN LAKESH 0400   39      10/  4/  5 1019.7F
PORT WASHINGTON  0300   38      40/  4/  6 1019.6F
MILWAUKEE LAKESH 0400   37      50/  4/  4   N/A
KENOSHA   LAKESH 0400   37      90/  7/  9   N/A
$$

TC  - TEMPERATURE IN CELSIUS
VSB - VISIBILITY IN STATUTE MILES
WCI - WIND CHILL INDEX
HX  - HEAT INDEX




USA.gov is the U.S. government's official web portal to all federal, state and local government web resources and services.